Regional Weather Roundup
Issued by NWS Wakefield, VA

Home | Current Version | Previous Version | Text Only | Print | Product List | Glossary Off
Versions: 1 2 3 4 5 6 7 8 9 10 11 12 13 14 15 16 17 18 19 20 21 22 23 24 25 26 27

000
ASUS41 KAKQ 221215
RWRAKQ

REGIONAL WEATHER ROUNDUP
NATIONAL WEATHER SERVICE WAKEFIELD VA
800 AM EDT THU JUN 22 2017

Note: "fair" indicates few or no clouds below 12,000 feet with no
significant weather and/or obstructions to visibility. * = Denotes
station may not report precipitation (e.g., rain,snow,etc.),
thunder or fog.

VAZ042-051-052>054-056-221300-
NORTHERN VIRGINIA

CITY           SKY/WX    TMP DP  RH WIND       PRES   REMARKS
WASH NATIONAL  PTSUNNY   79  72  79 S5        30.01S
DULLES         PTSUNNY   75  65  70 CALM      30.01F
FORT BELVOIR   MOSUNNY   77  70  80 S3        30.01S
QUANTICO       CLOUDY    78  72  81 CALM      30.02S
FREDERICKSBRG* MOSUNNY   77  70  78 CALM      30.01S
STAFFORD*      CLOUDY    75  72  88 CALM      30.06S
WARRENTON      CLOUDY    77  68  75 CALM      30.02S
CULPEPER*      CLOUDY    75  71  89 CALM      30.03S
MANASSAS*      MOSUNNY   75  70  84 SE3       30.02S
LEESBURG*      MOSUNNY   75  68  78 CALM      30.03S
WINCHESTER     MOSUNNY   72  63  73 SW5       30.03S
FRONT ROYAL*   CLOUDY    72  64  78 CALM      30.03R
LURAY*         CLOUDY    72  68  88 CALM      30.05R
$$

VAZ048-049-060>072-079>083-221300-
CENTRAL AND SOUTH CENTRAL VIRGINIA

CITY           SKY/WX    TMP DP  RH WIND       PRES   REMARKS
RICHMOND       CLOUDY    76  71  85 W5        30.03S
CHESTERFIELD*  NOT AVBL
PETERSBURG*    PTSUNNY   72  69  89 CALM      30.05F
HANOVER        MOSUNNY   75  68  78 SW5       30.04S
TAPPAHANNOCK*  MOSUNNY   76  72  89 W6        30.04R
QUINTON*       FAIR      73  73 100 CALM      30.03S
CHARLOTTSVILLE MOSUNNY   78  68  71 CALM      30.03S
GORDONSVILLE*  CLOUDY    73  70  91 CALM      30.03S
ORANGE*        CLOUDY    72  68  88 CALM      30.03S
LOUISA*        MOSUNNY   79  72  78 CALM      30.02S
BUMPASS*       FAIR      73  71  93 SW3       30.03S
FARMVILLE*     CLOUDY    73  70  91 SW3       30.04S
CREWE*         FAIR      72  68  86 CALM      30.05S
FORT PICKETT*  FAIR     N/A N/A N/A SW6       30.05S
CHASE CITY*    FAIR      71  71  99 CALM      30.07S
CLARKSVILLE*   FAIR      70  70 100 SW3       30.07R
SOUTH HILL*    CLOUDY    71  71 100 S3        30.12S
LAWRENCEVILLE* FAIR      72  71  96 SW5       30.06S
EMPORIA*       MOSUNNY   72  70  94 S5        30.07S
$$

VAZ088>098-221300-
SOUTHEAST VIRGINIA

CITY           SKY/WX    TMP DP  RH WIND       PRES   REMARKS
NORFOLK        MOSUNNY   77  71  82 SW13      30.05R
VIRGINIA BEACH CLOUDY    75  71  87 SW12      30.04S
NORFOLK NAVAL  CLOUDY    77  71  82 SW5       30.06R
WEST POINT*    CLOUDY    75  71  85 SW6       30.05R
SALUDA*        FAIR      76  73  88 W6        30.02S
NEWPORT NEWS   MOSUNNY   75  71  87 SW9       30.04S
LANGLEY AFB    CLOUDY    75  71  88 SW12      30.04R
FORT EUSTIS    NOT AVBL
WILLIAMSBURG*  MOSUNNY   75  72  88 CALM      30.05S
HR EXEC AP*    PTSUNNY   73  72  94 W5        30.04R
FRANKLIN*      PTSUNNY   73  72  94 SW5       30.06S
US460-WAKEFLD  MOSUNNY   74  71  91 VRB6      30.05R
$$

VAZ020-022-025-037-045-221300-
WEST CENTRAL AND SOUTHWEST VIRGINIA

CITY           SKY/WX    TMP DP  RH WIND       PRES   REMARKS
STAUNTON*      MOSUNNY   72  64  78 S5        30.09S
WAYNESBORO*    CLOUDY    72  66  81 CALM      30.09S
HOT SPRINGS VA CLOUDY    63  57  82 W13       30.21R HAZE
LYNCHBURG      CLOUDY    70  67  90 CALM      30.08S
DANVILLE       CLOUDY    70  70 100 SW3       30.08R
SOUTH BOSTON*  FAIR      71  70  95 SW3       30.07S
MARTINSVILLE   CLOUDY    67  66  97 CALM      30.13R
ROANOKE        PTSUNNY   72  62  71 N6        30.12R
BLACKSBURG     CLOUDY    65  61  87 CALM      30.18S
DUBLIN*        CLOUDY    67  60  78 CALM      30.17S
MARION*        MOSUNNY   67  62  85 CALM      30.20R
HILLSVILLE*    CLOUDY    65  58  78 CALM      30.18R
RICHLANDS*     NOT AVBL
WISE*          CLOUDY    68  68 100 CALM      30.19R
ABINGDON*      CLOUDY    67  65  91 CALM      30.16S
$$

MDZ021>025-VAZ099-100-221300-
SOUTHERN MARYLAND AND THE DELMARVA PENINSULA

CITY           SKY/WX    TMP DP  RH WIND       PRES   REMARKS
PATUXENT RIVER PTSUNNY   77  71  82 W5        30.01S
BAY BRIDGE APT SUNNY     79  72  78 CALM      30.01S
LEONARDTOWN    SUNNY     75  70  83 W5        30.03S
DOVER          SUNNY     74  74 100 CALM      30.01R
GEORGETOWN     MOSUNNY   77  72  84 CALM      30.02R
EASTON         PTSUNNY   79  72  78 CALM      30.05S
CAMBRIDGE      SUNNY     77  72  83 SW3       30.01S
SALISBURY      SUNNY     78  74  87 W5        30.01S
OCEAN CITY     SUNNY     78  73  84 W7        30.02S
WALLOPS ISLAND PTSUNNY   79  74  84 W8        30.02S
ACCOMACK*      MOSUNNY   79  72  80 W7        30.03R
$$

NCZ012>017-030>032-221300-
NORTH CENTRAL AND EASTERN NORTH CAROLINA

CITY           SKY/WX    TMP DP  RH WIND       PRES   REMARKS
ROANOKE RAPIDS FAIR      72  72 100 SW7       30.07S
RALEIGH        CLOUDY    74  72  93 SW7       30.09S
ELIZABETH CITY CLOUDY    77  75  93 SW8       30.07S
AHOSKIE*         N/A     73  72  96 CALM      30.07S
EDENTON*       CLOUDY    78  73  84 W3        30.09R
CURRITUCK*     CLOUDY    76  76 100 W9        30.07S
KILL DEVIL HLS CLOUDY    76  73  89 CALM      30.07R
MANTEO         CLOUDY    76  73  90 W6        30.08S
CAPE HATTERAS  PTSUNNY   79  74  84 W7        30.10R
TARBORO*       NOT AVBL
GOLDSBORO      PTSUNNY   75  75 100 SW7       30.08S
WASHINGTON     CLOUDY    74  73  96 SW5       30.10R
GREENVILLE     MOSUNNY   73  73 100 SW6       30.11R
NEW BERN       CLOUDY    75  74  96 W5        30.12R
WILMINGTON     CLOUDY    78  76  93 SW6       30.11R
$$

VAZ048-221300-
ELSEWHERE

CITY           SKY/WX    TMP DP  RH WIND       PRES   REMARKS
HARRISBURG PA  PTSUNNY   73  67  81 CALM      30.01S
BALTIMORE      PTSUNNY   78  66  66 CALM      30.00F
ANNAPOLIS      MOSUNNY   78  73  84 CALM      30.00S
ANDREWS AFB    MOSUNNY   78  70  76 CALM      30.01S
PHILADELPHIA   PTSUNNY   74  65  73 NE3       30.02S
HENDERSON NC   CLOUDY    69  67  94 SW5       30.08R
GREENSBORO     CLOUDY    72  72 100 SW6       30.09S
ROCKY MOUNT    CLOUDY    74  74 100 SW7       30.09R
$$

VAZ100-221300-
MARINE

STATION/POSITION TIME  TEMP    WIND        PRES    WAVE   SWELL
                       AIR SEA DIR/SP/G            HT/PER HT/PER
                 (UTC) (F)     (DEG/KT/KT) (MB)    (FT/S) (FT/S)
BRANDYWINE LGT   1142   72     170/  1/  1 1016.8R
CAPE MAY NJ      1148   72 70     CALM     1016.2R
LEWES DE         1148   72 71   40/  4/  5 1016.4R
15NM E FENWICK I 1150   69 67  210/  6/  8 1016.8R   2/ 5   2/ 5
OCEAN-CITY-INLET 1148   74 61  290/  6/  8 1016.7R
WACHAPREAGUE VA  1148   79 77  270/  5/  9 1016.4R
THOMAS POINT MD  1200   76 77  210/  2/  2   N/A
GOOSES REEF MD   1150   78     220/  4/  6 1017.2R
COVE POINT MD    1148   78      CALM  /  3 1016.9S
SOLOMONS ISLAND  1142   78 76  320/  1/  4   N/A
BISHOPS HEAD MD  1148   78 78  290/  7/  8 1016.7S
PINEY POINT MD   1142          280/  6/  7   N/A
POTOMAC MD       1150   76     270/ 10/ 12 1015.5S
CAMBRIDGE MD     1148   81 80              1016.8F
LEWISETTA VA     1148   75 77  270/  7/  9 1016.4R
RAPPAHANNOCK LGT 1142          220/  8/  8 1017.5R
YORK RVR RNG VA  1148   75     260/ 12/ 13 1017.3R
YORKTOWN VA      1148   74 76  240/  6/  8 1016.7R
JAMESTOWN VA     1150   74     250/  6/ 10   N/A
DOMINION TERM VA 1148   75     280/  5/  8 1017.5R
KIPTOPEKE VA     1142      77  240/  6/  9   N/A
CHES BAY BRIDGE  1148   74 72  260/ 14/ 15 1017.0R
CAPE HENRY VA    1148   74     230/ 10/ 16   N/A
WILLOUBY STN VA  1148   75     240/ 13/ 15 1017.1R
S CRANEY ISL VA  1148   75     220/  4/  6 1017.3R
CAPE HENRY BUOY  1130      73                N/A     2/ 5
1ST LANDING BUOY 1150   75                 1017.3R
CAPE CHARLES BUO 1151      65                N/A     2/ 5
64NM E OF VA BCH 1150   71 70  230/ 10/ 10 1018.2R   2/ 7   2/ 7
DUCK PIER NC     1148   76 61  260/ 12/ 16 1018.0R
OREGON INLET NC  1142   76 77  250/ 11/ 13 1018.3S
HATTERAS NC      1148   78 78  270/ 10/ 12 1018.9R
DIAMOND SHLS NC  1150   78 79  270/ 10/ 10 1019.1R   3/ 7   2/ 7
CAPE LOOKOUT NC  1100   78     270/ 11/ 12 1018.9R
$$




USA.gov is the U.S. government's official web portal to all federal, state and local government web resources and services.